Weather History for Westerly, RI

Change the Weather History Date:

Wednesday, December 5, 2012

  Actual Average (KGON) Record (KGON)
Temperature  
Mean Temperature 45 °F -  
Max Temperature 55 °F 43 °F 62 °F (1973)
Min Temperature 34 °F 25 °F 9 °F (1976)
Degree Days  
Heating Degree Days 20    
Moisture  
Dew Point 40 °F    
Average Humidity 73    
Maximum Humidity 100    
Minimum Humidity 43    
Precipitation  
Precipitation 0.01 in - - ()
Sea Level Pressure  
Sea Level Pressure 29.99 in    
Wind  
Wind Speed 9 mph (West)    
Max Wind Speed 18 mph    
Max Gust Speed 30 mph    
Visibility 8 miles    
Events Rain    
Averages and records for this station are not official NWS values.
T = Trace of Precipitation, MM = Missing Value Source: NWS Daily Summary

Daily Weather History Graph

Daily Weather History Graph

Search for Another Location

Airport:

Trip Planner

Search our weather history database for the weather conditions in past years. The results will help you decide how hot, cold, wet, or windy it might be!

Date:

Astronomy

Dec. 05, 2012 Rise Set
Actual Time 6:58 AM EST 4:17 PM EST
Civil Twilight 6:27 AM EST 4:48 PM EST
Nautical Twilight 5:52 AM EST 5:23 PM EST
Astronomical Twilight 5:19 AM EST 5:56 PM EST
Moon 11:07 PM EST (12/5) 11:17 AM EST (12/5)
Length of Visible Light 10h 21m
Length of Day
9h 19m
Waning Gibbous, 60% of the Moon is Illuminated
Dec 5
Waning Gibbous
Dec 6
Last Quarter
Dec 13
New
Dec 20
First Quarter
Dec 28
Full

Hourly Weather History & Observations

Time (EST) Temp. Windchill Dew Point Humidity Pressure Visibility Wind Dir Wind Speed Gust Speed Precip Events Conditions
12:04 AM 55.4 °F - 55.4 °F 100% 30.02 in 5.0 mi SSW 9.2 mph 17.3 mph N/A   Mostly Cloudy
12:29 AM 55.4 °F - 55.4 °F 100% 30.01 in 6.0 mi SSW 15.0 mph 21.9 mph N/A   Mostly Cloudy
12:53 AM 55.9 °F - 55.0 °F 97% 30.00 in 6.0 mi SSW 10.4 mph 18.4 mph N/A   Scattered Clouds
1:53 AM 55.0 °F - 54.0 °F 96% 29.97 in 6.0 mi SSW 11.5 mph - N/A   Clear
2:53 AM 55.0 °F - 54.0 °F 96% 29.93 in 8.0 mi SSW 15.0 mph 23.0 mph N/A   Clear
3:43 AM 53.6 °F - 53.6 °F 100% 29.91 in 7.0 mi SW 6.9 mph - N/A   Mostly Cloudy
3:53 AM 54.0 °F - 52.0 °F 93% 29.91 in 7.0 mi SW 12.7 mph 18.4 mph N/A   Overcast
4:53 AM 54.0 °F - 52.0 °F 93% 29.91 in 7.0 mi WSW 8.1 mph - 0.00 in Rain Light Rain
5:53 AM 53.1 °F - 51.1 °F 93% 29.91 in 7.0 mi WSW 4.6 mph - 0.00 in   Overcast
6:03 AM 53.6 °F - 51.8 °F 94% 29.91 in 8.0 mi WSW 6.9 mph - N/A   Overcast
6:51 AM 53.6 °F - 51.8 °F 94% 29.92 in 8.0 mi WSW 3.5 mph - 0.00 in Rain Light Rain
6:53 AM 53.1 °F - 51.1 °F 93% 29.92 in 7.0 mi WSW 3.5 mph - 0.00 in Rain Light Rain
7:11 AM 53.6 °F - 51.8 °F 94% 29.93 in 4.0 mi West 3.5 mph - 0.01 in Rain Rain
7:53 AM 53.1 °F - 51.1 °F 93% 29.93 in 10.0 mi NNW 3.5 mph - 0.01 in   Overcast
9:53 AM 53.1 °F - 43.0 °F 69% 29.97 in 10.0 mi NW 9.2 mph - N/A   Mostly Cloudy
10:53 AM 54.0 °F - 37.9 °F 55% 29.96 in 10.0 mi NW 11.5 mph 17.3 mph N/A   Clear
11:53 AM 53.1 °F - 36.0 °F 52% 29.94 in 10.0 mi NW 6.9 mph - N/A   Clear
12:53 PM 53.1 °F - 35.1 °F 50% 29.93 in 10.0 mi NW 6.9 mph - N/A   Clear
1:53 PM 53.1 °F - 34.0 °F 48% 29.93 in 10.0 mi WNW 6.9 mph - N/A   Clear
2:53 PM 54.0 °F - 32.0 °F 43% 29.94 in 10.0 mi NW 5.8 mph - N/A   Clear
3:53 PM 50.0 °F - 34.0 °F 54% 29.97 in 10.0 mi NW 11.5 mph 17.3 mph N/A   Partly Cloudy
4:53 PM 45.0 °F 37.4 °F 30.0 °F 56% 30.01 in 10.0 mi NNW 18.4 mph 24.2 mph N/A   Mostly Cloudy
5:53 PM 42.1 °F 33.9 °F 27.0 °F 55% 30.05 in 10.0 mi NNW 17.3 mph 25.3 mph N/A   Scattered Clouds
6:53 PM 41.0 °F 33.5 °F 21.9 °F 47% 30.09 in 10.0 mi NW 13.8 mph 29.9 mph N/A   Overcast
7:53 PM 39.0 °F 31.8 °F 19.0 °F 45% 30.10 in 10.0 mi NW 11.5 mph 28.8 mph N/A   Clear
8:53 PM 37.9 °F 30.9 °F 21.0 °F 51% 30.12 in 10.0 mi NW 10.4 mph 20.7 mph N/A   Mostly Cloudy
9:53 PM 37.0 °F 32.4 °F 19.9 °F 50% 30.13 in 10.0 mi NW 5.8 mph - N/A   Scattered Clouds
10:53 PM 35.1 °F 30.1 °F 18.0 °F 50% 30.14 in 10.0 mi NW 5.8 mph - N/A   Partly Cloudy
11:53 PM 34.0 °F 31.0 °F 18.0 °F 52% 30.16 in 10.0 mi Variable 3.5 mph - N/A   Clear